SCOUT X-4 DEB, 976

Orbit data source: Space-Track

SCOUT X-4 DEB, 976 is space debris in LEO originally from a launch on Sat, 10 Oct 1964 UTC launched from the Air Force Western Test Range (AFWTR). Debris objects in space refer to the collection of defunct objects orbiting the Earth. Examples of debris include non-operational satellites, rocket bodies, and fragments generated from explosions, collisions, or faulty payload assembly.

Loading next visibility...
SCOUT X-4 DEB details
Identifier
976, 1964-064C
Orbit
LEO
Last TLE update1 day ago
Origin
Flag of USGSFC (US)
ManufacturerAPL
MissionSpacecraft
Bus & MotorUnknown
MassUnknown
Launch date (UTC)
1964-10-10 (60 years ago)
Launch vehicleUnknown
Launch site
Air Force Western Test Range (AFWTR)
Object type
Payload
Rocket body
Debris
Shape & HBRUnknown
Radar Cross SectionSmall (<0.1 m²)

Expand to show TLE details & history

TLE from 1 day ago
0 SCOUT X-4 DEB
1 00976U 64064C   24355.39951326  .00000748  00000-0  41681-3 0  9991
2 00976  79.3142 240.8404 0117335  34.3450 326.5226 14.07152986 66462
Epoch: 2024-12-20T09:35Z
Definitive object data (Epoch: 2024-12-20T09:35:17.945Z)
Latitude-0.00001°
Longitude7.55005°
Altitude801.324 km
Speed7.489 km/s
True Right ascension16h 03m 21s
True Declination0° 00' 00"
Sunlit
Object was in daylight at TLE epoch
Visualization TLE readout
Latitude79.33697°
Longitude100.79745°
Altitude838.233 km
Speed7.463 km/s
Apparent Right ascension22h 33m 23s
Apparent Declination25° 41' 44"
Sunlit
Object is in daylight
Visualization observer readout
Local Sidereal Time10:38:02
Azimuth1.151° NNE
Elevation-24.379°
Doppler factor1
Orbital elements
Apogee altitude951.414 km
Perigee altitude781.406 km
Semi-major axis7,244.547 km
Eccentricity0.0117335
Inclination79.3142°
RAAN240.8404°
Arg. of periapsis34.345°
True anomaly325.77177°
Mean anomaly326.5226°
Eccentric anomaly326.14811°
Mean motion3.51987 °/min
BSTAR0.00041681
Orbital period102.28 mins
Loading maneuver chart data...
Loading historical data...
Loading historical data...
Loading historical data...
Loading historical data...
Loading historical data...
Loading historical data...
Loading historical data...
Other satellites on launch #64 in the year 1964 (1964-10-10 UTC)

SCOUT X-4 DEB Visibility forecast

Observer location: undefined°, undefined

Span
Click to sort rows by Start time (UTC) header in descending order
Start Az.
Max El. time (UTC)
Max El. Az.
Max El.
End time (UTC)
End Az.
7 mins2024-12-21 16:25:22.446Z140.895° SSE2024-12-21 16:29:22.446Z88.243° E21.818°2024-12-21 16:32:22.446Z46.946° ENE
8 mins2024-12-21 18:09:22.446Z231.844° WSW2024-12-21 18:12:22.446Z284.447° WNW30.968°2024-12-21 18:17:22.446Z355.412° N
8 mins2024-12-22 03:07:22.446Z23.596° NE2024-12-22 03:10:22.446Z64.492° ENE24.311°2024-12-22 03:15:22.446Z124.523° SE
9 mins2024-12-22 04:50:22.446Z326.217° NNW2024-12-22 04:54:22.446Z262.924° W33.279°2024-12-22 04:59:22.446Z198.824° SSW
|